GW2569 Weather Reports


Display with metric or nautical units.
time (UTC)temp
F
wind
direction
speed
MPH
gust
MPH
rain 1hr
in
rain 24hr
in
rain mn
in
humidity
%
barometer
mb
20260831022040 85 96 5.0 12.0 0.00 0.00 0.00 88 1014.9
20260831021608 86 70 4.0 13.0 0.00 0.00 0.00 88 1014.8
20260831021041 86 23 6.0 13.0 0.00 0.00 0.00 88 1014.7
20260831020539 86 40 5.0 11.0 0.00 0.00 0.00 88 1014.7
20260831020058 86 344 4.0 11.0 0.00 0.00 0.00 88 1014.5
20260831015541 86 52 3.0 11.0 0.00 0.00 0.00 87 1014.4
20260831015038 87 119 3.0 9.0 0.00 0.00 0.00 87 1014.2
20260831014617 87 82 1.0 7.0 0.00 0.00 0.00 87 1014.0
20260831014041 87 49 1.0 7.0 0.00 0.00 0.00 87 1013.8
20260831013541 88 321 1.0 6.0 0.00 0.00 0.00 86 1013.8
20260831013114 88 44 1.0 6.0 0.00 0.00 0.00 86 1013.7
20260831012543 88 18 1.0 5.0 0.00 0.00 0.00 86 1013.6
20260831012039 88 0 1.0 7.0 0.00 0.00 0.00 86 1013.5
20260831011559 88 0 2.0 9.0 0.00 0.00 0.00 86 1013.4
20260831011038 88 88 1.0 9.0 0.00 0.00 0.00 85 1013.4
20260831010541 89 341 1.0 9.0 0.00 0.00 0.00 85 1013.3
20260831010104 89 333 2.0 8.0 0.00 0.00 0.00 85 1013.2
20260831005543 89 163 1.0 10.0 0.00 0.00 0.00 85 1013.1
20260831005038 89 28 2.0 10.0 0.00 0.00 0.00 84 1013.1
20260831004600 90 24 1.0 10.0 0.00 0.00 0.00 84 1013.0
20260831004039 90 329 2.0 10.0 0.00 0.00 0.00 83 1013.1
20260831003544 90 310 3.0 10.0 0.00 0.00 0.00 83 1013.1
20260831003059 91 48 1.0 9.0 0.00 0.00 0.00 82 1013.1
20260831002539 91 85 3.0 10.0 0.00 0.00 0.00 81 1013.0
20260831002041 92 0 2.0 10.0 0.00 0.00 0.00 81 1013.0
20260831001604 92 360 3.0 10.0 0.00 0.00 0.00 79 1013.1
20260831001041 93 327 3.0 12.0 0.00 0.00 0.00 73 1013.1
20260831000540 93 68 3.0 13.0 0.00 0.00 0.00 73 1013.0
20260830235541 93 74 6.0 12.0 0.00 0.00 0.00 73 1013.0
20260830235041 93 82 4.0 12.0 0.00 0.00 0.00 73 1012.8
20260830234606 94 86 6.0 12.0 0.00 0.00 0.00 73 1012.9
20260830234042 94 77 4.0 12.0 0.00 0.00 0.00 73 1012.8
20260830233540 94 49 4.0 12.0 0.00 0.00 0.00 72 1012.9
20260830233057 94 130 6.0 12.0 0.00 0.00 0.00 72 1012.8
20260830232541 94 78 3.0 13.0 0.00 0.00 0.00 72 1012.7
20260830232038 94 67 6.0 14.0 0.00 0.00 0.00 72 1012.7
20260830231604 94 58 7.0 14.0 0.00 0.00 0.00 72 1012.9
20260830231043 94 110 6.0 14.0 0.00 0.00 0.00 72 1012.9
20260830230541 95 86 6.0 14.0 0.00 0.00 0.00 72 1012.9
20260830230104 95 11 5.0 12.0 0.00 0.00 0.00 72 1013.0
20260830225542 95 25 4.0 13.0 0.00 0.00 0.00 72 1013.0
20260830225041 95 69 8.0 14.0 0.00 0.00 0.00 72 1012.9
20260830224557 95 55 7.0 14.0 0.00 0.00 0.00 71 1012.9
20260830224041 95 87 6.0 13.0 0.00 0.00 0.00 71 1013.0
20260830223544 96 46 7.0 13.0 0.00 0.00 0.00 71 1013.0
20260830223056 96 65 3.0 12.0 0.00 0.00 0.00 71 1013.0
20260830222543 96 43 6.0 12.0 0.00 0.00 0.00 71 1012.9
20260830222042 96 96 5.0 12.0 0.00 0.00 0.00 70 1012.9
20260830221603 96 65 7.0 12.0 0.00 0.00 0.00 69 1012.9
20260830221038 96 34 5.0 12.0 0.00 0.00 0.00 70 1012.9
20260830220540 96 88 6.0 16.0 0.00 0.00 0.00 69 1013.0
20260830220103 96 86 5.0 16.0 0.00 0.00 0.00 69 1013.0
20260830215540 96 59 6.0 16.0 0.00 0.00 0.00 68 1013.0
20260830215042 96 54 6.0 14.0 0.00 0.00 0.00 68 1013.0
20260830214557 97 172 7.0 13.0 0.00 0.00 0.00 68 1013.1
20260830214044 97 102 5.0 18.0 0.00 0.00 0.00 68 1013.1
20260830213543 96 84 7.0 18.0 0.00 0.00 0.00 69 1013.2
20260830213059 96 104 8.0 13.0 0.00 0.00 0.00 69 1013.2
20260830212541 97 80 8.0 13.0 0.00 0.00 0.00 68 1013.2
20260830212038 96 66 5.0 13.0 0.00 0.00 0.00 69 1013.1
20260830211557 96 95 8.0 14.0 0.00 0.00 0.00 69 1013.2
20260830211041 97 86 7.0 15.0 0.00 0.00 0.00 69 1013.2
20260830210541 96 61 8.0 15.0 0.00 0.00 0.00 69 1013.3
20260830210059 96 77 5.0 14.0 0.00 0.00 0.00 71 1013.2
20260830205540 96 38 5.0 14.0 0.00 0.00 0.00 71 1013.4
20260830205044 96 107 8.0 14.0 0.00 0.00 0.00 71 1013.3
20260830204554 96 22 7.0 13.0 0.00 0.00 0.00 70 1013.4
20260830204043 96 52 6.0 11.0 0.00 0.00 0.00 71 1013.4
20260830203542 96 340 5.0 11.0 0.00 0.00 0.00 71 1013.5
20260830203122 96 47 6.0 14.0 0.00 0.00 0.00 71 1013.6
20260830202541 96 76 8.0 15.0 0.00 0.00 0.00 73 1013.5
20260830202040 95 82 4.0 15.0 0.00 0.00 0.00 72 1013.6
20260830201608 95 99 8.0 15.0 0.00 0.00 0.00 72 1013.7
20260830201041 96 113 6.0 12.0 0.00 0.00 0.00 72 1013.7
20260830200540 96 99 7.0 12.0 0.00 0.00 0.00 72 1013.8
20260830200108 96 64 6.0 13.0 0.00 0.00 0.00 72 1013.9
20260830195540 95 18 7.0 13.0 0.00 0.00 0.00 74 1013.9
20260830195042 95 95 7.0 13.0 0.00 0.00 0.00 73 1014.0
20260830194608 95 344 6.0 12.0 0.00 0.00 0.00 73 1014.0
20260830194039 95 26 5.0 11.0 0.00 0.00 0.00 73 1014.0
20260830193540 95 88 6.0 12.0 0.00 0.00 0.00 74 1014.1
20260830193106 94 67 7.0 12.0 0.00 0.00 0.00 75 1014.4
20260830192539 94 57 5.0 12.0 0.00 0.00 0.00 75 1014.5
20260830192038 94 103 5.0 12.0 0.00 0.00 0.00 74 1014.6
20260830191606 94 52 7.0 11.0 0.00 0.00 0.00 74 1014.8
20260830191040 95 101 6.0 11.0 0.00 0.00 0.00 73 1014.9
20260830190540 94 175 4.0 12.0 0.00 0.00 0.00 74 1015.1
20260830190056 94 119 5.0 12.0 0.00 0.00 0.00 75 1015.1
20260830185540 93 140 4.0 12.0 0.00 0.00 0.00 75 1015.2
20260830185039 93 45 6.0 13.0 0.00 0.00 0.00 76 1015.3
20260830184604 92 126 7.0 13.0 0.00 0.00 0.00 76 1015.3
20260830184042 92 118 3.0 13.0 0.00 0.00 0.00 77 1015.4
20260830183541 92 84 7.0 13.0 0.00 0.00 0.00 77 1015.4
20260830183109 92 92 6.0 13.0 0.00 0.00 0.00 74 1015.6
20260830182544 92 101 6.0 12.0 0.00 0.00 0.00 75 1015.7
20260830182041 92 49 4.0 12.0 0.00 0.00 0.00 76 1015.7
20260830181628 92 57 5.0 12.0 0.00 0.00 0.00 76 1015.8
20260830181040 92 32 5.0 10.0 0.00 0.00 0.00 76 1015.8
20260830180540 91 352 4.0 10.0 0.00 0.00 0.00 77 1015.7
20260830180056 91 49 5.0 11.0 0.00 0.00 0.00 76 1015.8
20260830175540 92 105 3.0 11.0 0.00 0.00 0.00 76 1015.7
20260830175040 91 0 3.0 10.0 0.00 0.00 0.00 78 1015.8
20260830174608 91 101 4.0 9.0 0.00 0.00 0.00 77 1015.8
20260830174043 91 69 4.0 14.0 0.00 0.00 0.00 77 1015.8
20260830173537 90 53 7.0 14.0 0.00 0.00 0.00 77 1015.8
20260830173110 90 130 6.0 13.0 0.00 0.00 0.00 78 1015.7
20260830172540 90 88 5.0 10.0 0.00 0.00 0.00 77 1015.7
20260830172039 90 114 3.0 10.0 0.00 0.00 0.00 78 1015.7
20260830171555 90 113 4.0 9.0 0.00 0.00 0.00 78 1015.7
20260830171040 90 59 4.0 9.0 0.00 0.00 0.00 78 1015.7
20260830170540 89 105 2.0 9.0 0.00 0.00 0.00 78 1015.8
20260830170106 89 118 4.0 9.0 0.00 0.00 0.00 79 1015.8
20260830165540 89 80 4.0 10.0 0.00 0.00 0.00 78 1015.8
20260830165040 88 111 1.0 10.0 0.00 0.00 0.00 78 1016.0
20260830164612 88 5 4.0 10.0 0.00 0.00 0.00 79 1016.0
20260830164040 88 0 1.0 8.0 0.00 0.00 0.00 79 1016.0
20260830163540 87 105 2.0 9.0 0.00 0.00 0.00 80 1016.0
20260830163111 87 57 2.0 9.0 0.00 0.00 0.00 80 1016.1
20260830162540 87 108 3.0 8.0 0.00 0.00 0.00 79 1016.1
20260830162041 87 159 1.0 9.0 0.00 0.00 0.00 80 1016.1
20260830161601 86 0 2.0 9.0 0.00 0.00 0.00 81 1016.1
20260830161040 86 96 1.0 9.0 0.00 0.00 0.00 81 1016.1
20260830160540 85 88 3.0 11.0 0.00 0.00 0.00 81 1016.2
20260830160059 85 81 6.0 11.0 0.00 0.00 0.00 82 1016.2
20260830155540 85 104 4.0 10.0 0.00 0.00 0.00 81 1016.2
20260830155041 85 98 4.0 10.0 0.00 0.00 0.00 82 1016.2
20260830154604 84 69 5.0 10.0 0.00 0.00 0.00 82 1016.3
20260830154041 84 108 3.0 8.0 0.00 0.00 0.00 82 1016.2
20260830153540 84 77 1.0 8.0 0.00 0.00 0.00 83 1016.3
20260830153105 83 76 3.0 10.0 0.00 0.00 0.00 84 1016.4
20260830152539 83 57 3.0 10.0 0.00 0.00 0.00 84 1016.4
20260830152041 83 82 4.0 8.0 0.00 0.00 0.00 84 1016.4
20260830151600 82 98 2.0 7.0 0.00 0.00 0.00 84 1016.4
20260830151041 82 114 2.0 7.0 0.00 0.00 0.00 85 1016.4
20260830150540 81 0 2.0 6.0 0.00 0.00 0.00 87 1016.3
20260830150058 81 86 1.0 6.0 0.00 0.00 0.00 87 1016.4
20260830145541 80 312 1.0 6.0 0.00 0.00 0.00 87 1016.4
20260830145043 80 98 1.0 6.0 0.00 0.00 0.00 88 1016.3
20260830144609 79 88 3.0 6.0 0.00 0.00 0.00 88 1016.2
20260830144040 79 60 3.0 7.0 0.00 0.00 0.00 88 1016.3
20260830143539 79 82 1.0 7.0 0.00 0.00 0.00 88 1016.3
20260830143117 79 105 3.0 6.0 0.00 0.00 0.00 88 1016.3
20260830142540 79 63 1.0 6.0 0.00 0.00 0.00 89 1016.2
20260830142040 79 116 2.0 6.0 0.00 0.00 0.00 89 1016.2
20260830141600 78 115 2.0 6.0 0.00 0.00 0.00 89 1016.1
20260830141042 78 114 2.0 7.0 0.00 0.00 0.00 89 1016.1
20260830140538 78 123 0.0 7.0 0.00 0.00 0.00 90 1016.1
20260830140104 78 98 1.0 6.0 0.00 0.00 0.00 90 1016.1
20260830135540 78 0 3.0 6.0 0.00 0.00 0.00 90 1016.1
20260830135037 78 121 1.0 6.0 0.00 0.00 0.00 90 1016.1
20260830134603 77 65 2.0 8.0 0.00 0.00 0.00 91 1016.2
20260830134043 77 163 4.0 8.0 0.00 0.00 0.00 91 1016.1
20260830133540 77 94 2.0 7.0 0.00 0.00 0.00 90 1016.1
20260830133138 77 113 2.0 7.0 0.00 0.00 0.00 90 1016.0
20260830132543 77 125 1.0 8.0 0.00 0.00 0.00 90 1016.0
20260830132040 77 157 2.0 8.0 0.00 0.00 0.00 90 1016.0
20260830131616 77 115 1.0 5.0 0.00 0.00 0.00 91 1015.9
20260830131040 77 44 2.0 5.0 0.00 0.00 0.00 91 1015.9
20260830130600 77 188 2.0 6.0 0.00 0.00 0.00 91 1015.9
20260830125539 77 154 2.0 5.0 0.00 0.00 0.00 91 1015.8
20260830125040 77 0 1.0 5.0 0.00 0.00 0.00 92 1015.8
20260830124616 77 210 1.0 5.0 0.00 0.00 0.00 92 1015.8
20260830124041 77 191 2.0 5.0 0.00 0.00 0.00 92 1015.8
20260830123539 77 184 2.0 5.0 0.00 0.00 0.00 91 1015.6
20260830123058 77 148 1.0 5.0 0.00 0.00 0.00 92 1015.6
20260830122541 77 210 2.0 5.0 0.00 0.00 0.00 91 1015.6
20260830122041 77 171 1.0 6.0 0.00 0.00 0.00 91 1015.5
20260830121556 77 186 2.0 6.0 0.00 0.00 0.00 91 1015.4
20260830121040 77 180 1.0 6.0 0.00 0.00 0.00 91 1015.5
20260830120540 76 189 3.0 6.0 0.00 0.00 0.00 91 1015.4
20260830115540 76 182 3.0 6.0 0.00 0.00 0.00 91 1015.3
20260830115040 77 145 3.0 6.0 0.00 0.00 0.00 91 1015.2
20260830114614 76 188 3.0 6.0 0.00 0.00 0.00 91 1015.1
20260830114040 77 188 2.0 5.0 0.00 0.00 0.00 92 1015.0
20260830113540 76 144 1.0 5.0 0.00 0.00 0.00 92 1015.0
20260830113108 76 159 1.0 6.0 0.00 0.00 0.00 92 1014.9
20260830112538 76 130 2.0 6.0 0.00 0.00 0.00 92 1014.7
20260830112040 76 101 1.0 6.0 0.00 0.00 0.00 92 1014.7
20260830111554 76 113 2.0 6.0 0.00 0.00 0.00 92 1014.6
20260830111040 77 123 2.0 7.0 0.00 0.00 0.00 92 1014.6
20260830110536 77 110 2.0 7.0 0.00 0.00 0.00 91 1014.6
20260830105539 77 88 3.0 8.0 0.00 0.00 0.00 91 1014.4
20260830105040 77 87 3.0 8.0 0.00 0.00 0.00 91 1014.4
20260830104602 77 107 3.0 8.0 0.00 0.00 0.00 91 1014.4
20260830104044 77 65 3.0 8.0 0.00 0.00 0.00 91 1014.5
20260830103543 77 83 4.0 7.0 0.00 0.00 0.00 91 1014.5
20260830103100 77 0 2.0 8.0 0.00 0.00 0.00 91 1014.5
20260830102542 77 69 3.0 10.0 0.00 0.00 0.00 91 1014.4
20260830102043 77 94 2.0 10.0 0.00 0.00 0.00 91 1014.3
20260830101559 77 78 1.0 3.0 0.00 0.00 0.00 92 1014.4
20260830101038 77 9 0.0 7.0 0.00 0.00 0.00 92 1014.4
20260830100543 77 0 2.0 9.0 0.00 0.00 0.00 92 1014.3
20260830100103 77 88 5.0 9.0 0.00 0.00 0.00 92 1014.2
20260830095540 77 100 3.0 8.0 0.00 0.00 0.00 92 1014.3
20260830095042 77 103 2.0 8.0 0.00 0.00 0.00 92 1014.3
20260830094604 77 58 2.0 8.0 0.00 0.00 0.00 92 1014.2
20260830094042 77 60 1.0 5.0 0.00 0.00 0.00 92 1014.2
20260830093540 77 102 2.0 6.0 0.00 0.00 0.00 92 1014.2
20260830093106 77 102 3.0 8.0 0.00 0.00 0.00 91 1014.1
20260830092543 77 92 3.0 8.0 0.00 0.00 0.00 91 1014.1
20260830092040 77 57 2.0 9.0 0.00 0.00 0.00 91 1014.1
20260830091601 77 106 3.0 9.0 0.00 0.00 0.00 91 1014.2
20260830091040 77 46 3.0 9.0 0.00 0.00 0.00 91 1014.2
20260830090540 77 23 4.0 9.0 0.00 0.00 0.00 91 1014.2
20260830085540 77 44 2.0 6.0 0.00 0.00 0.00 91 1014.3
20260830085040 77 59 1.0 7.0 0.00 0.00 0.00 91 1014.4
20260830084606 77 86 2.0 7.0 0.00 0.00 0.00 91 1014.4
20260830084042 77 77 3.0 12.0 0.00 0.00 0.00 91 1014.5
20260830083541 77 55 4.0 12.0 0.00 0.00 0.00 91 1014.5
20260830083111 77 56 2.0 9.0 0.00 0.00 0.00 91 1014.6
20260830082540 78 75 2.0 9.0 0.00 0.00 0.00 91 1014.6
20260830082043 78 80 3.0 9.0 0.00 0.00 0.00 90 1014.7
20260830081603 78 106 3.0 9.0 0.00 0.00 0.00 90 1014.9
20260830081037 78 54 4.0 7.0 0.00 0.00 0.00 90 1014.9
20260830080541 78 82 2.0 6.0 0.00 0.00 0.00 89 1014.9
20260830080100 78 71 2.0 6.0 0.00 0.00 0.00 89 1015.0
20260830075541 78 89 2.0 9.0 0.00 0.00 0.00 89 1015.0
20260830075040 78 98 4.0 9.0 0.00 0.00 0.00 89 1015.1
20260830074556 78 142 4.0 7.0 0.00 0.00 0.00 89 1015.1
20260830074040 78 70 2.0 7.0 0.00 0.00 0.00 89 1015.2
20260830073540 78 86 1.0 8.0 0.00 0.00 0.00 89 1015.2
20260830073102 78 106 2.0 8.0 0.00 0.00 0.00 89 1015.3
20260830072542 78 93 3.0 9.0 0.00 0.00 0.00 89 1015.4
20260830072039 78 98 3.0 9.0 0.00 0.00 0.00 89 1015.6
20260830071600 78 80 3.0 7.0 0.00 0.00 0.00 89 1015.7
20260830071042 79 86 2.0 7.0 0.00 0.00 0.00 89 1015.7
20260830070542 79 0 1.0 8.0 0.00 0.00 0.00 88 1015.9
20260830070109 79 124 3.0 12.0 0.00 0.00 0.00 88 1016.0
20260830065539 79 128 3.0 12.0 0.00 0.00 0.00 88 1016.2
20260830065043 79 117 4.0 8.0 0.00 0.00 0.00 88 1016.2
20260830064558 79 186 3.0 8.0 0.00 0.00 0.00 88 1016.1
20260830064037 79 173 3.0 8.0 0.00 0.00 0.00 88 1016.0
20260830063538 79 169 3.0 9.0 0.00 0.00 0.00 88 1016.1
20260830063101 79 163 2.0 9.0 0.00 0.00 0.00 88 1016.1
20260830062541 79 159 3.0 10.0 0.00 0.00 0.00 88 1016.2
20260830062040 80 160 4.0 10.0 0.00 0.00 0.00 88 1016.5
20260830061606 80 134 4.0 10.0 0.00 0.00 0.00 88 1016.7
20260830061038 80 156 4.0 10.0 0.00 0.00 0.00 88 1016.9
20260830060540 80 165 4.0 12.0 0.00 0.00 0.00 88 1017.2
20260830060106 80 117 4.0 12.0 0.00 0.00 0.00 88 1017.3
20260830055542 80 72 4.0 11.0 0.00 0.00 0.00 88 1017.7
20260830055040 80 130 3.0 12.0 0.00 0.00 0.00 88 1017.7
20260830054558 80 122 6.0 12.0 0.00 0.00 0.00 87 1018.1
20260830054040 80 98 4.0 11.0 0.00 0.00 0.00 87 1018.2
20260830053539 81 107 6.0 18.0 0.00 0.00 0.00 87 1018.3
20260830053058 81 112 6.0 18.0 0.00 0.00 0.00 87 1018.4
20260830052539 81 138 9.0 18.0 0.00 0.00 0.00 86 1018.5
20260830052039 81 119 7.0 17.0 0.00 0.00 0.00 86 1018.3
20260830051557 81 108 8.0 26.0 0.00 0.00 0.00 85 1018.3
20260830051042 81 115 11.0 26.0 0.00 0.00 0.00 85 1018.3
20260830050540 82 103 14.0 25.0 0.00 0.00 0.00 85 1018.3
20260830050108 82 113 10.0 20.0 0.00 0.00 0.00 88 1018.4
20260830045540 82 132 9.0 23.0 0.00 0.00 0.00 89 1018.3
20260830045039 82 121 12.0 23.0 0.00 0.00 0.00 90 1018.2
20260830044559 82 84 8.0 16.0 0.00 0.00 0.00 91 1018.1
20260830044043 82 95 8.0 16.0 0.00 0.00 0.00 91 1018.0
20260830043537 82 87 6.0 12.0 0.00 0.00 0.00 90 1017.9
20260830043055 82 115 6.0 12.0 0.00 0.00 0.00 91 1017.8
20260830042541 83 105 6.0 13.0 0.00 0.00 0.00 91 1017.7
20260830042039 83 122 6.0 13.0 0.00 0.00 0.00 91 1017.5
20260830041556 83 74 6.0 12.0 0.00 0.00 0.00 91 1017.3
20260830041041 83 58 5.0 11.0 0.00 0.00 0.00 91 1017.2
20260830040538 83 88 4.0 11.0 0.00 0.00 0.00 91 1017.1
20260830040105 83 67 5.0 11.0 0.00 0.00 0.00 91 1017.1
20260830035538 83 51 2.0 9.0 0.00 0.00 0.00 91 1017.1
20260830035040 83 102 3.0 10.0 0.00 0.00 0.00 91 1017.0
20260830034626 83 101 4.0 11.0 0.00 0.00 0.00 90 1016.8
20260830034040 83 42 4.0 11.0 0.00 0.00 0.00 91 1016.7
20260830033541 83 88 4.0 12.0 0.00 0.00 0.00 90 1016.6
20260830033100 83 70 6.0 13.0 0.00 0.00 0.00 91 1016.6
20260830032543 83 64 8.0 13.0 0.00 0.00 0.00 90 1016.6
20260830032040 83 71 6.0 13.0 0.00 0.00 0.00 90 1016.5
20260830031604 83 78 6.0 12.0 0.00 0.00 0.00 90 1016.4
20260830031040 83 38 4.0 11.0 0.00 0.00 0.00 90 1016.5
20260830030540 83 80 5.0 11.0 0.00 0.00 0.00 89 1016.3
20260830025540 84 84 6.0 13.0 0.00 0.00 0.00 89 1015.9
20260830025040 84 48 6.0 14.0 0.00 0.00 0.00 89 1015.9
20260830024559 84 75 6.0 14.0 0.00 0.00 0.00 89 1015.9
20260830024040 84 67 6.0 13.0 0.00 0.00 0.00 88 1015.7
20260830023540 84 43 6.0 14.0 0.00 0.00 0.00 88 1015.6
20260830023057 84 49 4.0 14.0 0.00 0.00 0.00 88 1015.4
20260830022540 84 57 6.0 14.0 0.00 0.00 0.00 88 1015.2